CST,Max TemperatureF,Mean TemperatureF,Min TemperatureF,Max Dew PointF,MeanDew PointF,Min DewpointF,Max Humidity, Mean Humidity, Min Humidity, Max Sea Level PressureIn, Mean Sea Level PressureIn, Min Sea Level PressureIn, Max VisibilityMiles, Mean VisibilityMiles, Min VisibilityMiles, Max Wind SpeedMPH, Mean Wind SpeedMPH, Max Gust SpeedMPH,PrecipitationIn, CloudCover, Events, WindDirDegrees
2012-11-1,84,66,48,59,52,46,100,76,30,30.07,30.00,29.96,10,8,2,6,0,,0.01,1,,20
2012-11-2,84,73,62,65,61,54,100,77,34,30.06,30.00,29.96,10,7,2,9,4,,0.00,2,,222
2012-11-3,84,73,62,67,61,53,100,80,35,30.12,30.05,29.99,10,5,0,8,2,,0.01,1,Fog,204
2012-11-4,79,68,55,61,59,53,94,79,50,30.11,30.07,30.01,10,9,4,8,1,,0.00,2,Thunderstorm,60
2012-11-5,78,63,48,63,54,46,100,81,35,30.06,30.01,29.92,10,7,0,8,1,,0.00,4,Fog,200
2012-11-6,66,54,42,47,44,40,97,75,42,30.12,30.06,29.99,10,9,2,12,2,16,0.01,1,,355
2012-11-7,72,57,42,46,38,26,100,67,19,30.15,30.11,30.05,10,8,1,13,1,21,0.00,0,,352
2012-11-8,71,55,39,45,40,36,89,63,32,30.25,30.17,30.13,10,9,2,7,1,,0.00,0,,165
2012-11-9,77,60,43,56,48,41,96,72,31,30.20,30.14,30.08,10,9,2,7,3,,0.00,0,,160
2012-11-10,80,66,53,59,56,51,96,70,43,30.16,30.08,30.02,10,10,6,10,5,20,0.01,1,,159
2012-11-11,70,62,55,67,64,53,97,89,78,30.14,30.01,29.96,10,8,1,10,6,24,0.56,7,Rain,158
2012-11-12,60,48,35,54,43,33,97,77,36,30.46,30.32,30.15,10,10,4,14,6,22,0.10,4,Rain,359
2012-11-13,57,44,30,39,32,27,96,69,32,30.51,30.41,30.34,10,10,9,10,2,17,0.00,0,,17
2012-11-14,61,48,34,37,32,27,93,67,28,30.40,30.34,30.28,10,10,5,10,2,,0.00,1,,12
2012-11-15,62,46,30,39,32,26,96,67,26,30.35,30.29,30.24,10,9,4,8,2,,0.00,0,,39
2012-11-16,64,48,33,39,36,31,96,72,33,30.36,30.32,30.27,10,8,3,7,2,,0.00,0,,28
2012-11-17,69,49,32,38,33,29,96,66,24,30.39,30.35,30.30,10,8,4,7,1,,0.00,0,,32
2012-11-18,,,,,,,,,,,,,,,,,,,,,,
2012-11-19,71,58,45,46,43,37,90,60,29,30.25,30.19,30.17,10,10,9,4,1,,0.00,1,,-1
2012-11-20,75,59,43,52,47,41,93,73,35,30.23,30.17,30.12,10,9,5,5,1,,0.00,1,Rain,317
2012-11-21,75,59,42,54,44,35,93,69,23,30.25,30.20,30.16,10,9,2,9,1,,0.00,0,,1
2012-11-22,75,57,39,48,43,37,97,69,32,30.23,30.17,30.12,10,8,3,7,1,,0.00,0,,175
2012-11-23,64,55,46,61,53,34,100,90,61,30.32,30.24,30.17,10,5,1,9,2,,0.08,5,Rain,1
2012-11-24,57,44,30,33,29,25,96,65,30,30.39,30.29,30.17,10,10,4,7,3,,0.00,0,,7
2012-11-25,68,49,30,53,37,27,92,66,32,30.17,30.09,30.01,10,10,6,8,2,,0.00,0,,170
2012-11-26,77,67,57,66,61,53,100,85,60,30.04,30.00,29.94,10,10,5,10,5,20,0.02,5,Rain,187
2012-11-27,69,55,41,66,48,37,94,82,55,30.34,30.20,30.03,10,9,2,14,6,29,0.17,5,Rain-Thunderstorm,3
2012-11-28,63,49,34,38,35,31,96,73,30,30.46,30.37,30.32,10,10,9,7,2,,0.00,0,,56
2012-11-29,66,48,30,37,33,29,96,63,26,30.35,30.26,30.19,10,7,2,6,1,,0.00,2,,155
2012-11-30,72,54,37,56,47,36,100,85,55,30.25,30.20,30.14,10,5,0,6,1,,0.00,2,Fog,153